sat.trackr.live / text

‹ back to catalog

ONEWEB-0349

NORAD 49281 · 2021-090C

PAYLOAD ACTIVE UNKNOWN

§ Identity

Operator
Country
UK
Launch date
2021-10-14
Launch site
VOSTO
Launch vehicle
Mass (kg)
RCS (m²)

Purposes: comms

External: N2YO · Heavens-Above · Gunter

§ Orbital elements

Epoch: 2026-05-25T02:55:53.899104Z

Period
109.03 min
Inclination
87.9175°
Eccentricity
0.0001865
Mean motion
13.20769502 rev/d
Perigee alt
1,180.4 km
Apogee alt
1,183.2 km
Semi-major
7,559.9 km
B*
9.7220e-5
RAAN
279.0398°
Arg perigee
100.0495°
Mean anomaly
260.0849°
Rev number
22,678

§ Raw data

ONEWEB-03491 49281U 21090C   26145.12215161  .00000053  00000+0  97220-4 0  99942 49281  87.9175 279.0398 0001865 100.0495 260.0849 13.20769502226789

JSON: /api/v1/satellites/49281 · /tle

For live sub-satellite position, see the globe view (requires WebGL).

§ Visibility from observer

Set your observer location to see the next 7 days of passes ≥ 10°. The values pass through the URL so the page stays shareable.

No JS? Fill the form by hand. The geolocation button needs JavaScript.